Flag for Germany Weather past 2 weeks in Leimen, Baden-Württemberg, Germany

Now
66 °F

Passing clouds.


Feels Like: 66 °F
Forecast: 42 / 67 °F
Wind: 6 mph from Southwest

Location: Baden Wurttemberg - Neuostheim

Current Time: Aug 20, 2014 at 5:22:08 PM

Latest Report: Aug 20, 2014 at 4:50 PM


Visibility: N/A

Pressure: 30.01 "Hg

Humidity: 43%

Dew point: 43 °F

Location of LeimenLocation

Historic Weather in Leimen — Graph

°F

Leimen temperature yesterday

Maximum temperature yesterday: 72 °F (at 5:50 PM)
Minimum temperature yesterday: 52 °F (at 3:20 AM)
Average temperature yesterday: 61 °F

Past Weeks' High & Low Weather Summary

 TemperatureHumidityPressure
High81 °F (Aug 8, 1:50 PM)100% (Aug 10, 7:50 AM)30.12 "Hg (Aug 10, 7:50 AM)
Low48 °F (Aug 20, 5:50 AM)36% (Aug 12, 4:50 PM)29.65 "Hg (Aug 13, 1:50 PM)
Average67 °F65%29.93 "Hg
* Reported Aug 5 3:20 PM — Aug 20 3:50 PM, Leimen, Weather by CustomWeather, © 2014

Note: Actual official high and low records may vary slightly from our data, if they occured in-between our weather recording intervals... More about our weather records

Advertising

Leimen weather history for previous 24 hours

 ConditionsComfort  
Time TempWeatherWind HumidityBarometerVisibility
3:50 PM
Aug 20
66 °FPassing clouds.5 mph40%30.01 "HgN/A
3:20 PM64 °FSunny.5 mph46%30.04 "Hg10 mi
2:50 PM64 °FSunny.3 mph43%30.04 "Hg10 mi
2:20 PM64 °FPassing clouds.5 mph46%30.04 "HgN/A
1:50 PM64 °FScattered clouds.5 mph46%30.04 "HgN/A
1:20 PM64 °FBroken clouds.3 mph46%30.04 "HgN/A
12:50 PM64 °FBroken clouds.2 mph43%30.04 "HgN/A
12:20 PM63 °FBroken clouds.3 mph45%30.04 "HgN/A
11:50 AM63 °FSunny.3 mph56%30.04 "Hg10 mi
11:20 AM61 °FSunny.5 mph55%30.07 "Hg10 mi
10:50 AM59 °FPassing clouds.5 mph63%30.07 "HgN/A
10:20 AM59 °FSunny.3 mph68%30.07 "Hg10 mi
9:50 AM57 °FSunny.3 mph72%30.07 "Hg10 mi
9:20 AM57 °FSunny.3 mph77%30.07 "Hg10 mi
8:50 AM55 °FSunny.2 mph77%30.07 "Hg10 mi
8:20 AM55 °FSunny.2 mph77%30.04 "Hg10 mi
7:50 AM54 °FSunny.No wind82%30.04 "Hg10 mi
7:20 AM52 °FClear.1 mph88%30.04 "Hg10 mi
6:50 AM50 °FClear.2 mph94%30.04 "Hg10 mi
6:20 AM48 °FClear.1 mph94%30.04 "Hg10 mi
5:50 AM48 °FClear.2 mph87%30.04 "Hg10 mi
5:20 AM50 °FClear.2 mph88%30.04 "Hg10 mi
8:50 PM
Aug 19
63 °FPassing clouds.8 mph59%29.95 "HgN/A
7:50 PM64 °FSunny.12 mph56%29.92 "Hg10 mi
7:20 PM64 °FPassing clouds.12 mph56%29.92 "HgN/A
6:50 PM64 °FSunny.15 mph56%29.92 "Hg10 mi
6:20 PM66 °FSunny.15 mph52%29.92 "Hg10 mi
5:50 PM72 °FPassing clouds.15 mph36%29.89 "HgN/A
5:20 PM70 °FPassing clouds.9 mph40%29.89 "HgN/A
Weather by CustomWeather, © 2014

See weather overviewHow to use our weather pages